This is the latest recevied weather packets stored in our database for station/object M0TUM-1. If no packets are shown the sender has not sent any weather packets the latest 10 day(s).
| Time | Temp. | Humidity | Pressure | Rain* | Wind** | Luminosity | Snow |
|---|---|---|---|---|---|---|---|
| 1778082730 | 10° C | 86% | 1013.1 hPa | 0 mm | - | 25 W/m² | - |
| 1778081598 | 10.56° C | 86% | 1013.1 hPa | 0 mm | - | 58 W/m² | - |
| 1778081295 | 10° C | 86% | 1013.2 hPa | 0 mm | - | 134 W/m² | - |
| 1778080992 | 10° C | 85% | 1013.2 hPa | 0 mm | - | 81 W/m² | - |
| 1778080691 | 10° C | 85% | 1013.1 hPa | 0 mm | - | 75 W/m² | - |
| 1778080387 | 10° C | 85% | 1013 hPa | 0 mm | - | 63 W/m² | - |
| 1778080084 | 10° C | 84% | 1013.2 hPa | 0 mm | - | 64 W/m² | - |
| 1778079781 | 10° C | 84% | 1013 hPa | 0 mm | - | 62 W/m² | - |
| 1778079478 | 10° C | 84% | 1013 hPa | 0 mm | - | 47 W/m² | - |
| 1778079174 | 10° C | 83% | 1012.9 hPa | 0 mm | - | 37 W/m² | - |
| 1778078872 | 10° C | 83% | 1013.1 hPa | 0 mm | - | 38 W/m² | - |
| 1778078568 | 10° C | 83% | 1012.9 hPa | 0 mm | - | 41 W/m² | - |
| 1778078266 | 10° C | 83% | 1012.9 hPa | 0 mm | - | 50 W/m² | - |
| 1778077963 | 10° C | 83% | 1012.9 hPa | 0 mm | - | 51 W/m² | - |
| 1778077662 | 10.56° C | 82% | 1012.8 hPa | 0 mm | - | 49 W/m² | - |
| 1778077359 | 10.56° C | 82% | 1013 hPa | 0 mm | - | 63 W/m² | - |
| 1778077057 | 10.56° C | 81% | 1013 hPa | 0 mm | - | 103 W/m² | - |
| 1778076755 | 10.56° C | 81% | 1012.8 hPa | 0 mm | - | 132 W/m² | - |
| 1778076453 | 10.56° C | 81% | 1012.8 hPa | 0 mm | - | 124 W/m² | - |
| 1778076149 | 10.56° C | 81% | 1012.9 hPa | 0 mm | - | 121 W/m² | - |
| 1778075846 | 10.56° C | 81% | 1013 hPa | 0 mm | - | 115 W/m² | - |
| 1778075543 | 10.56° C | 82% | 1013.1 hPa | 0 mm | - | 108 W/m² | - |
| 1778075240 | 10.56° C | 83% | 1012.9 hPa | 0 mm | - | 104 W/m² | - |
| 1778074936 | 10.56° C | 83% | 1013.3 hPa | 0 mm | - | 91 W/m² | - |
| 1778074633 | 10.56° C | 83% | 1012.9 hPa | 0 mm | - | 73 W/m² | - |
* Rain latest hour (hover to see other rain measurements)
** Current wind speed in m/s (hover to see current wind gust speed)